This is the latest recevied weather packets stored in our database for station/object N2PUI. If no packets are shown the sender has not sent any weather packets the latest 10 day(s).
| Time | Temp. | Humidity | Pressure | Rain* | Wind** | Luminosity | Snow |
|---|---|---|---|---|---|---|---|
| 1777493075 | 13.89° C | 77% | 1009.3 hPa | 0 mm | - | 49 W/m² | - |
| 1777492772 | 13.89° C | 77% | 1009.1 hPa | 0 mm | - | 43 W/m² | - |
| 1777492467 | 13.89° C | 78% | 1009.3 hPa | 0 mm | - | 44 W/m² | - |
| 1777492164 | 13.89° C | 78% | 1009.4 hPa | 0 mm | - | 37 W/m² | - |
| 1777491861 | 13.89° C | 78% | 1009.5 hPa | 0 mm | - | 40 W/m² | - |
| 1777491558 | 13.89° C | 78% | 1009.5 hPa | 0 mm | - | 52 W/m² | - |
| 1777491256 | 13.89° C | 78% | 1009.5 hPa | 0 mm | - | 65 W/m² | - |
| 1777490952 | 13.89° C | 78% | 1009.7 hPa | 0 mm | - | 52 W/m² | - |
| 1777490647 | 13.89° C | 78% | 1010.1 hPa | 0 mm | - | 57 W/m² | - |
| 1777490343 | 13.89° C | 78% | 1009.5 hPa | 0 mm | - | 81 W/m² | - |
| 1777490041 | 13.89° C | 78% | 1009.8 hPa | 0 mm | - | 60 W/m² | - |
| 1777489738 | 13.89° C | 78% | 1009.8 hPa | 0 mm | - | 49 W/m² | - |
| 1777489436 | 13.89° C | 78% | 1010.1 hPa | 0 mm | - | 50 W/m² | - |
| 1777489132 | 13.89° C | 78% | 1010.2 hPa | 0 mm | - | 58 W/m² | - |
| 1777488830 | 13.89° C | 79% | 1010.4 hPa | 0 mm | - | 81 W/m² | - |
| 1777488526 | 13.89° C | 79% | 1010.3 hPa | 0 mm | - | 88 W/m² | - |
| 1777488224 | 13.89° C | 79% | 1010.2 hPa | 0 mm | - | 121 W/m² | - |
| 1777487922 | 13.89° C | 79% | 1010.4 hPa | 0 mm | - | 84 W/m² | - |
| 1777487620 | 13.89° C | 79% | 1010.6 hPa | 0 mm | - | 100 W/m² | - |
| 1777487317 | 13.89° C | 79% | 1010.7 hPa | 0 mm | - | 108 W/m² | - |
| 1777487013 | 13.89° C | 79% | 1010.5 hPa | 0 mm | - | 103 W/m² | - |
| 1777486704 | 13.89° C | 79% | 1010.8 hPa | 0 mm | - | 122 W/m² | - |
| 1777486402 | 13.89° C | 79% | 1010.8 hPa | 0 mm | - | 103 W/m² | - |
| 1777486099 | 13.89° C | 78% | 1010.8 hPa | 0 mm | - | 106 W/m² | - |
| 1777485796 | 13.89° C | 78% | 1011.1 hPa | 0 mm | - | 123 W/m² | - |
* Rain latest hour (hover to see other rain measurements)
** Current wind speed in m/s (hover to see current wind gust speed)